User: anonymous   Login
Location: Unspecified
(0.0000°N, 0.0000°E)
Time: 10:45:20
(UTC+00:00)
Language:

Tiangong 1 - Orbit

View from above orbital plane
View from above orbital plane
View from above satellite
View from above satellite

Ground track
Ground track

The orbit data is extracted from the following two-line orbital elements,

1 37820U 11053A   17179.77357590 +.00023497 +00000-0 +12723-3 0  9991
2 37820 042.7574 129.0078 0017959 163.8833 267.9771 15.79345062329804
Epoch (UTC): 28 June 2017 18:33:56
Eccentricity: 0.0017959
inclination: 42.7574°
perigee height: 320 km
apogee height: 344 km
right ascension of ascending node: 129.0078°
argument of perigee: 163.8833°
revolutions per day: 15.79345062
mean anomaly at epoch: 267.9771°
orbit number at epoch: 32980

The dashed part of the orbit path shows where the satellite is in the earth's shadow,  

DLR